DELTA 1 R/B

Last updated on Fri Jul 11 2025 00:02:12 GMT+0000 (Coordinated Universal Time)

1 20323U 89089B 25191.63186954 .00000129 00000+0 40907-4 0 9999 2 20323 97.1014 72.2650 0069537 166.0150 194.2995 14.50410746860640
UTC large
Height (km)
Speed (km/s)
/
Latitude / Longitude
Inclination (degrees)
Orbital Period (minutes)
Azimuth
Elevation
Range (km)
Doppler Factor

Next 0 passes for location: London (51.5072 / 0.1276)

Sorry there are no passes over London.